Massena, NY

6:56 AM EDT on June 26, 2017 (GMT -0400)
Massena International-Richards

Weather History for KMSS - April, 2013

Change the Weather History Date:

Wednesday, April 24, 2013

  Actual Average Record
Temperature  
Mean Temperature 54 °F 48 °F  
Max Temperature 73 °F 59 °F 80 °F (1958)
Min Temperature 34 °F 36 °F 25 °F (1986)
Degree Days  
Heating Degree Days 11 18  
Month to date heating degree days 570 553  
Since 1 July heating degree days 7102 7684  
Cooling Degree Days 0 0  
Month to date cooling degree days 0 0  
Year to date cooling degree days 0 0  
Growing Degree Days 2 (Base 50)    
Moisture  
Dew Point 42 °F    
Average Humidity 64    
Maximum Humidity 96    
Minimum Humidity 31    
Precipitation  
Precipitation 0.08 in 0.09 in 0.76 in (1970)
Month to date precipitation 1.55 2.24  
Year to date precipitation 4.27 8.28  
Sea Level Pressure  
Sea Level Pressure 29.78 in    
Wind  
Wind Speed 10 mph (South)    
Max Wind Speed 38 mph    
Max Gust Speed 46 mph    
Visibility 10 miles    
Events Rain    
T = Trace of Precipitation, MM = Missing Value Source: NWS Daily Summary

Daily Weather History Graph

Daily Weather History Graph

Search for Another Location

Airport or City:

Trip Planner

Search our weather history database for the weather conditions in past years. The results will help you decide how hot, cold, wet, or windy it might be!

Date:

Astronomy

Apr. 24, 2013 Rise Set
Actual Time 5:59 AM EDT 7:56 PM EDT
Civil Twilight 5:27 AM EDT 8:28 PM EDT
Nautical Twilight 4:49 AM EDT 9:06 PM EDT
Astronomical Twilight 4:06 AM EDT 9:49 PM EDT
Moon 6:55 PM EDT (4/24) 5:04 AM EDT (4/24)
Length of Visible Light 15h 00m
Length of Day
13h 57m
Waxing Gibbous, 98% of the Moon is Illuminated
Apr 24
Waxing Gibbous
Apr 25
Full
May 2
Last Quarter
May 9
New
May 18
First Quarter

Hourly Weather History & Observations

Time (EDT) Temp. Windchill Dew Point Humidity Pressure Visibility Wind Dir Wind Speed Gust Speed Precip Events Conditions
12:53 AM 46.9 °F - 37.0 °F 68% 30.04 in 10.0 mi SSE 6.9 mph - N/A   Clear
1:53 AM 46.0 °F 43.9 °F 36.0 °F 68% 30.02 in 10.0 mi SSE 4.6 mph - N/A   Clear
2:53 AM 42.1 °F - 34.0 °F 73% 29.99 in 10.0 mi Calm Calm - N/A   Clear
3:53 AM 39.0 °F - 34.0 °F 82% 29.99 in 10.0 mi Calm Calm - N/A   Clear
4:53 AM 36.0 °F 32.1 °F 33.1 °F 89% 29.97 in 10.0 mi ENE 4.6 mph - N/A   Clear
5:53 AM 33.8 °F 30.8 °F 32.0 °F 93% 29.96 in 10.0 mi NE 3.5 mph - N/A   Clear
6:53 AM 39.9 °F - 37.0 °F 89% 29.95 in 10.0 mi Calm Calm - N/A   Clear
7:53 AM 48.0 °F - 39.0 °F 71% 29.93 in 10.0 mi ENE 3.5 mph - N/A   Clear
8:53 AM 54.0 °F - 39.9 °F 59% 29.90 in 10.0 mi Calm Calm - N/A   Clear
9:53 AM 62.1 °F - 39.9 °F 44% 29.88 in 10.0 mi Variable 4.6 mph - N/A   Clear
10:53 AM 62.1 °F - 39.9 °F 44% 29.85 in 10.0 mi NNE 4.6 mph - N/A   Clear
11:53 AM 62.1 °F - 41.0 °F 46% 29.81 in 10.0 mi ENE 6.9 mph - N/A   Clear
12:53 PM 66.0 °F - 39.9 °F 38% 29.76 in 10.0 mi East 4.6 mph - N/A   Clear
1:53 PM 70.0 °F - 39.9 °F 33% 29.70 in 10.0 mi East 8.1 mph - N/A   Clear
2:53 PM 72.0 °F - 39.9 °F 31% 29.66 in 10.0 mi East 9.2 mph - N/A   Scattered Clouds
3:53 PM 70.0 °F - 43.0 °F 38% 29.65 in 10.0 mi SW 9.2 mph 18.4 mph N/A   Overcast
4:53 PM 69.1 °F - 45.0 °F 42% 29.65 in 10.0 mi SW 15.0 mph 25.3 mph 0.00 in   Overcast
5:53 PM 64.0 °F - 48.9 °F 58% 29.63 in 10.0 mi SW 9.2 mph - 0.00 in Rain Light Rain
6:53 PM 64.0 °F - 52.0 °F 65% 29.60 in 10.0 mi South 9.2 mph - 0.00 in   Overcast
7:53 PM 66.0 °F - 50.0 °F 56% 29.57 in 10.0 mi SSW 19.6 mph 29.9 mph N/A   Mostly Cloudy
8:53 PM 64.9 °F - 51.1 °F 61% 29.56 in 10.0 mi SSW 18.4 mph 32.2 mph N/A   Overcast
9:53 PM 57.9 °F - 53.1 °F 84% 29.61 in 10.0 mi SW 20.7 mph 39.1 mph 0.04 in Rain Light Rain
10:53 PM 53.1 °F - 48.9 °F 86% 29.63 in 9.0 mi SSW 25.3 mph 34.5 mph 0.04 in Rain Light Rain
11:03 PM 51.8 °F - 46.4 °F 82% 29.62 in 10.0 mi SW 27.6 mph 36.8 mph 0.00 in Rain Light Rain
11:37 PM 48.2 °F - 42.8 °F 82% 29.67 in 10.0 mi SW 34.5 mph 46.0 mph 0.00 in   Overcast
11:53 PM 46.9 °F - 42.1 °F 83% 29.70 in 10.0 mi SW 34.5 mph 42.6 mph 0.00 in   Overcast